Location: Carthage
(33.8834°N, 106.6595°W)
Time: 10:58:53
(UTC+00:00)

COSMO-SKYMED 1 - Pass Details

Date: 13 February 2026
Orbit: 577 x 579 km, 97.9° (Epoch: 11 March)

Event Time Altitude Azimuth Distance (km) Brightness Sun altitude
Rises 12:39:42 0° 163° (SSE) 2,781 6.2 -15.8°
Reaches altitude 10° 12:41:50 10° 161° (SSE) 1,886 5.4 -15.3°
Maximum altitude 12:45:55 74° 77° (ENE) 606 2.6 -14.5°
Drops below altitude 10° 12:50:01 10° 352° (N) 1,898 4.9 -13.7°
Sets 12:52:10 0° 351° (N) 2,800 5.8 -13.2°
